sat.trackr.live / text

‹ back to catalog

STARLINK-4072

NORAD 52694 · 2022-053AQ

PAYLOAD ACTIVE UNKNOWN

§ Identity

Operator
Country
US
Launch date
2022-05-18
Launch site
AFETR
Launch vehicle
Mass (kg)
RCS (m²)

Purposes: comms

External: N2YO · Heavens-Above · Gunter

§ Orbital elements

Epoch: 2026-05-25T00:38:06.652032Z

Period
95.44 min
Inclination
53.2129°
Eccentricity
0.0001084
Mean motion
15.08841187 rev/d
Perigee alt
539.0 km
Apogee alt
540.5 km
Semi-major
6,917.9 km
B*
5.3353e-5
RAAN
161.4329°
Arg perigee
73.3200°
Mean anomaly
286.7911°
Rev number
22,267

§ Raw data

STARLINK-40721 52694U 22053AQ  26145.02646588  .00000561  00000+0  53353-4 0  99992 52694  53.2129 161.4329 0001084  73.3200 286.7911 15.08841187222670

JSON: /api/v1/satellites/52694 · /tle

For live sub-satellite position, see the globe view (requires WebGL).

§ Visibility from observer

Set your observer location to see the next 7 days of passes ≥ 10°. The values pass through the URL so the page stays shareable.

No JS? Fill the form by hand. The geolocation button needs JavaScript.